This is the latest recevied weather packets stored in our database for station/object KD9ZDW. If no packets are shown the sender has not sent any weather packets the latest 10 day(s).
| Time | Temp. | Humidity | Pressure | Rain* | Wind** | Luminosity | Snow |
|---|---|---|---|---|---|---|---|
| 1777894597 | 10.56° C | 75% | 1008.7 hPa | 0 mm | - | 50 W/m² | - |
| 1777894295 | 10.56° C | 76% | 1008.6 hPa | 0 mm | - | 42 W/m² | - |
| 1777893992 | 10° C | 76% | 1008.6 hPa | 0 mm | - | 35 W/m² | - |
| 1777893688 | 10° C | 77% | 1008.6 hPa | 0 mm | - | 27 W/m² | - |
| 1777893384 | 10° C | 77% | 1008.7 hPa | 0 mm | - | 21 W/m² | - |
| 1777893080 | 10° C | 76% | 1008.8 hPa | 0 mm | - | 18 W/m² | - |
| 1777892778 | 10° C | 78% | 1008.7 hPa | 0 mm | - | 15 W/m² | - |
| 1777892474 | 9.44° C | 77% | 1008.6 hPa | 0 mm | - | 13 W/m² | - |
| 1777892169 | 10° C | 76% | 1008.8 hPa | 0 mm | - | 10 W/m² | - |
| 1777891866 | 9.44° C | 78% | 1008.7 hPa | 0 mm | - | 8 W/m² | - |
| 1777891563 | 9.44° C | 78% | 1008.6 hPa | 0 mm | - | 6 W/m² | - |
| 1777891260 | 10° C | 77% | 1008.6 hPa | 0 mm | - | 4 W/m² | - |
| 1777890959 | 10° C | 76% | 1008.6 hPa | 0 mm | - | 2 W/m² | - |
| 1777890655 | 9.44° C | 77% | 1008.6 hPa | 0 mm | - | 1 W/m² | - |
| 1777890350 | 9.44° C | 77% | 1008.6 hPa | 0 mm | - | 1 W/m² | - |
| 1777890047 | 10° C | 77% | 1008.6 hPa | 0 mm | - | 0 W/m² | - |
| 1777889744 | 10° C | 76% | 1008.5 hPa | 0 mm | - | 0 W/m² | - |
| 1777889442 | 10° C | 76% | 1008.7 hPa | 0 mm | - | 0 W/m² | - |
| 1777889139 | 9.44° C | 78% | 1008.7 hPa | 0 mm | - | 0 W/m² | - |
| 1777888837 | 9.44° C | 77% | 1008.6 hPa | 0 mm | - | 0 W/m² | - |
| 1777888533 | 10° C | 77% | 1008.7 hPa | 0 mm | - | 0 W/m² | - |
| 1777888229 | 9.44° C | 77% | 1008.7 hPa | 0 mm | - | 0 W/m² | - |
| 1777887926 | 10° C | 77% | 1008.8 hPa | 0 mm | - | 0 W/m² | - |
| 1777887624 | 9.44° C | 78% | 1008.7 hPa | 0 mm | - | 0 W/m² | - |
| 1777887320 | 9.44° C | 78% | 1008.7 hPa | 0 mm | - | 0 W/m² | - |
* Rain latest hour (hover to see other rain measurements)
** Current wind speed in m/s (hover to see current wind gust speed)